Regional Weather Roundup
Issued by NWS

Home | Current Version | Previous Version | Graphics & Text | Print | Product List | Glossary On
Versions: 1 2 3 4 5 6 7 8 9 10 11 12 13 14 15 16 17 18 19 20 21 22 23 24 25 26 27 28 29 30 31 32 33 34 35 36 37 38 39 40 41 42 43 44 45 46 47 48 49 50
000
ASUS43 KDMX 200501
RWRIA

WEATHER ROUNDUP FOR IOWA
NATIONAL WEATHER SERVICE DES MOINES IA
1100 PM CST SUN NOV 19 2017

NOTE: "FAIR" INDICATES FEW OR NO CLOUDS BELOW 12,000 FEET WITH NO
SIGNIFICANT WEATHER AND/OR OBSTRUCTIONS TO VISIBILITY.

* - THESE STATIONS ARE NOT NWS STATIONS...THUS NOT UNDER NWS
QUALITY CONTROL.  THEY ALSO DO NOT REPORT WEATHER SUCH
AS PRECIPITATION OR FOG.

IAZ001>003-012>014-020>022-031>034-043>046-200600-
   NORTHWEST IOWA

CITY           SKY/WX    TMP DP  RH WIND       PRES   REMARKS
CARROLL *      CLOUDY    39  27  60 SW14      29.88F WCI  31
CHEROKEE *     PTCLDY    35  26  71 S6        29.83F WCI  30
DENISON *      CLOUDY    39  27  60 S8        29.89F WCI  34
LE MARS *      CLOUDY    36  27  69 S7        29.83F WCI  30
ORANGE CITY *  CLOUDY    36  28  75 SW8       29.81F WCI  29
SHELDON *      PTCLDY    37  25  60 S9        29.79F WCI  31
SIOUX CITY     CLOUDY    30  25  81 E6        29.85F WCI  24
SPENCER        CLOUDY    35  27  72 S10       29.82F WCI  27
STORM LAKE *   CLOUDY    37  27  65 SW13      29.84F WCI  29
$$

IAZ055>058-069>071-079>083-090>094-200600-
   SOUTHWEST IOWA

CITY           SKY/WX    TMP DP  RH WIND       PRES   REMARKS
ATLANTIC *     CLOUDY    34  27  75 S7        29.92F WCI  28
AUDUBON *      CLOUDY    39  27  60 S9        29.91F WCI  33
CLARINDA *       N/A     34  27  75 S6        29.98F WCI  29
COUNCIL BLFS * CLOUDY    45  25  45 S10       29.91F
CRESTON *      CLOUDY    34  28  80 S15       29.97F WCI  24
HARLAN  *      CLOUDY    34  28  80 S5        29.94F WCI  30
LAMONI         CLEAR     34  26  72 S8        29.99F WCI  27
RED OAK *      CLOUDY    34  27  75 S6        29.94F WCI  29
SHENANDOAH *   CLOUDY    39  27  60 S7        29.96F WCI  34
$$

IAZ047>049-059>061-072>074-084-200600-
   CENTRAL IOWA

CITY           SKY/WX    TMP DP  RH WIND       PRES   REMARKS
AMES           CLOUDY    37  30  75 S8        29.92F WCI  31
ANKENY *       CLOUDY    37  28  70 S8        29.95F WCI  31
BOONE *        CLOUDY    39  28  65 SW12      29.90F WCI  32
CHARITON *     CLEAR     36  28  75 S10       29.99F WCI  28
DES MOINES     PTCLDY    38  27  64 S13       29.94F WCI  30
GRINNELL*      PTCLDY    35  28  75 S12       29.96F WCI  26
KNOXVILLE *    CLOUDY    39  27  60 S14G21    29.95F WCI  31
MARSHALLTOWN   CLOUDY    38  28  67 S15       29.92F WCI  29
NEWTON *       CLOUDY    37  28  70 S12       29.95F WCI  30
PELLA *        CLOUDY    38  27  66 S9        29.99F WCI  31
$$

IAZ004>006-015-016-023>025-035-036-200600-
   NORTH CENTRAL IOWA

CITY           SKY/WX    TMP DP  RH WIND       PRES   REMARKS
ALGONA *       CLOUDY    34  32  93 S13       29.83F WCI  25
CLARION *      CLOUDY    34  32  93 S13       29.86F WCI  25
ESTHERVILLE    CLOUDY    33  27  78 S9        29.80F WCI  25
FORT DODGE *   CLOUDY    38  27  64 SW13      29.87F WCI  30
MASON CITY     CLOUDY    36  27  69 SW13      29.86F WCI  27
FOREST CITY *    N/A     36  30  80 S6        29.85F WCI  31
WEBSTER CITY * CLOUDY    37  28  70 SW13      29.86F WCI  29
IOWA FALLS *     N/A     37  29  74 S14       29.90F WCI  28
$$

IAZ007>011-017>019-026>030-037>042-050>054-066-200600-
   NORTHEAST IOWA

CITY           SKY/WX    TMP DP  RH WIND       PRES   REMARKS
CEDAR RAPIDS   CLOUDY    33  26  75 S12       29.96F WCI  24
CHARLES CITY * CLOUDY    34  28  80 S10       29.89F WCI  26
CLINTON *      CLOUDY    31  25  78 SW7       30.04F WCI  24
DECORAH *      CLOUDY    34  27  75 S8        29.89F WCI  27
DUBUQUE        CLOUDY    29  23  78 S10       29.97F WCI  20
MONTICELLO *   CLOUDY    32  25  74 S6        29.98F WCI  26
OELWEIN *      CLOUDY    32  28  86 S9        29.92F WCI  24
WATERLOO       PTCLDY    34  26  72 S10       29.91F WCI  26
$$

IAZ064-065-067-068-078-200600-
   EAST CENTRAL IOWA

CITY           SKY/WX    TMP DP  RH WIND       PRES   REMARKS
DAVENPORT      CLOUDY    35  24  64 S10       30.05F WCI  27
IOWA CITY      CLOUDY    35  26  69 S7        30.02F WCI  29
MT. PLEASANT * PTCLDY    33  26  73 S12       30.04F WCI  24
MUSCATINE *    CLOUDY    34  25  69 SE7       30.04F WCI  28
QUAD CITIES    CLOUDY    35  23  61 SW9       30.04F WCI  28
$$

IAZ062-063-075>077-085>089-095>099-200600-
   SOUTHEAST IOWA

CITY           SKY/WX    TMP DP  RH WIND       PRES   REMARKS
BURLINGTON     CLOUDY    34  26  72 S12       30.05F WCI  25
FAIRFIELD *    CLOUDY    36  25  64 S12       30.01F WCI  27
FORT MADISON * PTCLDY    37  27  65 S12       30.06F WCI  30
KEOKUK *       CLOUDY    37  25  60 SW13G20   30.06F WCI  29
OSKALOOSA *      N/A     36  28  74 SW12      29.99F WCI  27
OTTUMWA        CLOUDY    35  26  69 S13       30.00F WCI  26
WASHINGTON *   CLOUDY    36  28  75 SW12      30.02F WCI  27
$$

ABBREVIATIONS USED IN REMARKS
   TC - TEMPERATURES IN CELSIUS
  WCI - WIND CHILL INDEX
   HX - HEAT INDEX
  VSB - VISIBILITY
$$





USA.gov is the U.S. government's official web portal to all federal, state and local government web resources and services.